This demonstration page uses our WeatherBlox Daily Observations layout. Learn more.

Left ArrowRight Arrow

40.92945, -100.16068

Hourly Observations for April 13, 2015

Temp ( °F °C ) Dew Point ( °F °C ) Humidity (%) Winds ( mph kmh ) Pressure ( in mb ) Visibility ( mi km ) Precip ( " mm )
12:15 am 00:15 Clear 42 5.3 31 -0.4 67 67 NW 6 9 30.09 1019 10 16 N/A
12:35 am 00:35 Clear 39 4 31 -0.7 72 72 W 3 6 30.09 1019 10 16 N/A
12:55 am 00:55 Clear 39 3.7 31 -0.7 73 73 WNW 5 7 30.09 1019 10 16 N/A
1:15 am 01:15 Clear 38 3.4 31 -0.7 75 75 W 6 9 30.12 1020 10 16 N/A
1:35 am 01:35 Clear 37 2.5 31 -0.8 79 79 W 6 9 30.15 1021 10 16 N/A
1:55 am 01:55 Clear 38 3.2 32 -0.2 79 79 W 6 9 30.15 1021 10 16 N/A
2:15 am 02:15 Clear 36 2.2 31 -0.7 81 81 WNW 7 11 30.15 1021 10 16 N/A
2:35 am 02:35 Clear 35 1.7 31 -0.5 86 86 NW 7 11 30.15 1021 10 16 N/A
2:55 am 02:55 Clear 34 1 30 -1.1 86 86 NW 6 9 30.18 1022 10 16 N/A
3:15 am 03:15 Clear 34 1.1 29 -1.5 83 83 WNW 5 7 30.21 1023 10 16 N/A
3:35 am 03:35 Clear 33 0.6 29 -1.4 87 87 N N/A 30.21 1023 10 16 N/A
3:55 am 03:55 Clear 32 0.1 28 -2 86 86 N N/A 30.21 1023 10 16 N/A
4:15 am 04:15 Clear 34 0.9 29 -1.6 84 84 W 3 6 30.24 1024 10 16 N/A
4:35 am 04:35 Clear 32 undefined 28 -2.2 85 85 W 5 7 30.24 1024 10 16 N/A
4:55 am 04:55 Clear 32 -0.1 29 -1.9 88 88 WNW 8 13 30.24 1024 10 16 N/A
5:15 am 05:15 Clear 32 -0.1 28 -2 87 87 WNW 9 15 30.24 1024 10 16 N/A
5:35 am 05:35 Clear 31 -0.4 28 -2.1 88 88 NW 10 17 30.24 1024 10 16 N/A
5:55 am 05:55 Clear 32 -0.2 29 -1.9 88 88 NW 9 15 30.24 1024 10 16 N/A
6:15 am 06:15 Clear 32 undefined 29 -1.6 89 89 NNW 8 13 30.24 1024 10 16 N/A
6:35 am 06:35 Clear 31 -0.3 28 -2.1 88 88 NW 5 7 30.27 1025 10 16 N/A
6:55 am 06:55 Clear 31 -0.6 28 -2.5 87 87 W 8 13 30.33 1027 10 16 N/A
7:15 am 07:15 Sunny 31 -0.6 28 -2.1 90 90 WNW 9 15 30.33 1027 10 16 N/A
7:35 am 07:35 Sunny 32 undefined 29 -1.5 90 90 WNW 9 15 30.30 1026 10 16 N/A
7:55 am 07:55 Sunny 34 1 31 -0.8 88 88 WNW 9 15 30.30 1026 10 16 N/A
8:15 am 08:15 Sunny 36 2.4 32 undefined 84 84 WNW 10 17 30.33 1027 10 16 N/A
8:35 am 08:35 Sunny 39 4 34 1 81 81 WNW 13 20 30.30 1026 10 16 N/A
8:55 am 08:55 Sunny 42 5.6 35 1.4 75 75 WNW 10 17 30.30 1026 10 16 N/A
9:15 am 09:15 Sunny 45 7 35 1.7 69 69 WNW 10 17 30.30 1026 10 16 N/A
9:35 am 09:35 Sunny 48 8.8 35 1.8 62 62 WNW 10 17 30.30 1026 10 16 N/A
9:55 am 09:55 Sunny 50 10.1 34 0.9 53 53 NW 7 11 30.27 1025 10 16 N/A
10:15 am 10:15 Sunny 53 11.4 31 -0.8 43 43 NW 5 7 30.27 1025 10 16 N/A
10:35 am 10:35 Sunny 54 12.4 28 -2.3 36 36 N N/A 30.27 1025 10 16 N/A
10:55 am 10:55 Sunny 56 13.6 27 -3 32 32 N N/A 30.24 1024 10 16 N/A
11:15 am 11:15 Sunny 58 14.2 24 -4.3 28 28 N N/A 30.24 1024 10 16 N/A
11:35 am 11:35 Sunny 58 14.6 25 -4 28 28 N N/A 30.24 1024 10 16 N/A
11:55 am 11:55 Sunny 59 15 21 -6.3 23 23 N N/A 30.24 1024 10 16 N/A
12:15 pm 12:15 Sunny 61 16 24 -4.4 24 24 S 5 7 30.21 1023 10 16 N/A
12:35 pm 12:35 Sunny 61 16.2 23 -4.9 23 23 SW 3 6 30.21 1023 10 16 N/A
12:55 pm 12:55 Sunny 62 16.5 25 -4 24 24 SSW 6 9 30.21 1023 10 16 N/A
1:15 pm 13:15 Sunny 62 16.6 25 -3.7 25 25 SSE 6 9 30.21 1023 10 16 N/A
1:35 pm 13:35 Sunny 62 16.7 24 -4.7 23 23 N N/A 30.18 1022 10 16 N/A
1:55 pm 13:55 Sunny 63 17.2 23 -4.8 22 22 N N/A 30.18 1022 10 16 N/A
2:15 pm 14:15 Sunny 63 17.4 24 -4.5 22 22 N N/A 30.18 1022 10 16 N/A
2:35 pm 14:35 Sunny 64 18 25 -3.9 22 22 E 6 9 30.18 1022 10 16 N/A
2:55 pm 14:55 Sunny 65 18.5 24 -4.4 21 21 SE 5 7 30.15 1021 10 16 N/A
3:15 pm 15:15 Sunny 66 19 26 -3.4 22 22 SW 5 7 30.12 1020 10 16 N/A
3:35 pm 15:35 Sunny 66 18.8 24 -4.2 21 21 SSW 5 7 30.12 1020 10 16 N/A
3:55 pm 15:55 Sunny 67 19.2 26 -3.2 22 22 S 9 15 30.12 1020 10 16 N/A
4:15 pm 16:15 Sunny 66 19.1 25 -4.1 21 21 N N/A 30.12 1020 10 16 N/A
4:35 pm 16:35 Sunny 67 19.5 26 -3.5 21 21 S 5 7 30.12 1020 10 16 N/A
4:55 pm 16:55 Sunny 66 18.9 24 -4.5 20 20 N N/A 30.12 1020 10 16 N/A
5:15 pm 17:15 Sunny 67 19.2 24 -4.6 20 20 S 9 15 30.12 1020 10 16 N/A
5:35 pm 17:35 Sunny 66 19 26 -3.5 22 22 SSW 8 13 30.09 1019 10 16 N/A
5:55 pm 17:55 Sunny 67 19.2 24 -4.7 19 19 SW 7 11 30.12 1020 10 16 N/A
6:15 pm 18:15 Sunny 66 18.8 24 -4.2 21 21 SSW 8 13 30.12 1020 10 16 N/A
6:35 pm 18:35 Sunny 65 18.3 26 -3.2 23 23 S 8 13 30.15 1021 10 16 N/A
6:55 pm 18:55 Sunny 64 18 27 -3 24 24 SSW 9 15 30.15 1021 10 16 N/A
7:15 pm 19:15 Sunny 63 17.1 27 -3 25 25 SSW 7 11 30.15 1021 10 16 N/A
7:35 pm 19:35 Sunny 62 16.5 29 -1.6 29 29 SSW 7 11 30.15 1021 10 16 N/A
7:55 pm 19:55 Sunny 60 15.3 30 -1.3 32 32 S 6 9 30.12 1020 10 16 N/A
8:15 pm 20:15 Sunny 57 14 28 -2 33 33 S 7 11 30.18 1022 10 16 N/A
8:35 pm 20:35 Clear 56 13.1 27 -2.6 34 34 S 7 11 30.18 1022 10 16 N/A
8:55 pm 20:55 Clear 54 12 29 -1.9 38 38 S 9 15 30.18 1022 10 16 N/A
9:15 pm 21:15 Clear 51 10.7 29 -1.8 42 42 S 8 13 30.21 1023 10 16 N/A
9:35 pm 21:35 Clear 52 11.3 28 -2 40 40 SSW 9 15 30.21 1023 10 16 N/A
9:55 pm 21:55 Clear 52 11.2 27 -2.6 38 38 SSW 9 15 30.21 1023 10 16 N/A
10:15 pm 22:15 Clear 49 9.6 28 -2.2 44 44 S 6 9 30.21 1023 10 16 N/A
10:35 pm 22:35 Clear 49 9.3 28 -2.4 44 44 SSW 9 15 30.21 1023 10 16 N/A
10:55 pm 22:55 Clear 49 9.3 27 -2.6 43 43 S 7 11 30.21 1023 10 16 N/A
11:15 pm 23:15 Clear 49 9.2 28 -2.5 44 44 S 8 13 30.21 1023 10 16 N/A
11:35 pm 23:35 Clear 49 9.6 27 -2.9 42 42 S 9 15 30.21 1023 10 16 N/A
11:55 pm 23:55 Clear 48 9 27 -2.6 44 44 S 9 15 30.21 1023 10 16 N/A

Powered by AerisWeather